Terminal Aerodrome Forecast
Issued by NWS Boise, ID

Home | Current Version | Previous Version | Text Only | Print | Product List | Glossary On
Versions: 1 2 3 4 5 6 7 8 9 10 11 12 13 14 15 16 17 18 19 20 21 22 23 24 25 26 27 28 29 30 31 32 33 34 35
186
FTUS45 KBOI 241416 AAB
TAFBOI
TAF AMD
KBOI 241416Z 2414/2512 29008KT P6SM OVC050
     FM241800 30007KT P6SM SCT100
     FM250300 13005KT P6SM SCT120
      AMD NOT SKED=

USA.gov is the U.S. government's official web portal to all federal, state and local government web resources and services.